Weather History for Madison, WI

Change the Weather History Date:

Friday, November 16, 2012

  Actual Average Record
Temperature  
Mean Temperature 37 °F 36 °F  
Max Temperature 48 °F 44 °F 70 °F (1953)
Min Temperature 26 °F 28 °F 2 °F (1959)
Degree Days  
Heating Degree Days 28 29  
Month to date heating degree days 417 405  
Since 1 July heating degree days 1132 1118  
Cooling Degree Days 0 0  
Month to date cooling degree days 0 0  
Year to date cooling degree days 1068 568  
Moisture  
Dew Point 33 °F    
Average Humidity 83    
Maximum Humidity 100    
Minimum Humidity 65    
Precipitation  
Precipitation 0.00 in 0.08 in 1.97 in (1961)
Month to date precipitation 0.87 1.29  
Year to date precipitation 23.73 31.64  
Snow  
Snow 0.00 in 0.10 in 2.80 in (2000)
Month to date snowfall 0.1 1.0  
Since 1 July snowfall 0.1 1.5  
Since 1 September snowfall 0.1 1.5  
Snow Depth 0.00 in    
Sea Level Pressure  
Sea Level Pressure 30.47 in    
Wind  
Wind Speed 4 mph (East)    
Max Wind Speed 13 mph    
Max Gust Speed 26 mph    
Visibility 5 miles    
Events Fog    
T = Trace of Precipitation, MM = Missing Value Source: NWS Daily Summary

Daily Weather History Graph

Daily Weather History Graph

Search for Another Location

Airport:

Trip Planner

Search our weather history database for the weather conditions in past years. The results will help you decide how hot, cold, wet, or windy it might be!

Date:

Astronomy

Nov. 16, 2012 Rise Set
Actual Time 6:52 AM CST 4:32 PM CST
Civil Twilight 6:21 AM CST 5:02 PM CST
Nautical Twilight 5:46 AM CST 5:37 PM CST
Astronomical Twilight 5:13 AM CST 6:10 PM CST
Moon 9:47 AM CST (11/16) 7:30 PM CST (11/16)
Length of Visible Light 10h 41m
Length of Day
9h 40m
Waxing Crescent, 12% of the Moon is Illuminated
Nov 16
Waxing Crescent
Nov 20
First Quarter
Nov 28
Full
Dec 6
Last Quarter
Dec 13
New

Hourly Weather History & Observations

Time (CST) Temp. Windchill Dew Point Humidity Pressure Visibility Wind Dir Wind Speed Gust Speed Precip Events Conditions
12:53 AM 28.9 °F - 27.0 °F 92% 30.38 in 5.0 mi Calm Calm - N/A   Clear
1:53 AM 28.0 °F - 27.0 °F 96% 30.40 in 4.0 mi Calm Calm - N/A   Clear
2:53 AM 27.0 °F 20.5 °F 25.0 °F 92% 30.41 in 3.0 mi WNW 5.8 mph - N/A   Clear
3:53 AM 28.9 °F 21.9 °F 27.0 °F 92% 30.43 in 7.0 mi NNW 6.9 mph - N/A   Clear
4:53 AM 28.9 °F 25.2 °F 27.0 °F 92% 30.43 in 8.0 mi NNW 3.5 mph - N/A   Clear
5:53 AM 28.0 °F 22.8 °F 26.1 °F 92% 30.45 in 9.0 mi NNW 4.6 mph - N/A   Clear
6:53 AM 28.9 °F 25.2 °F 26.1 °F 89% 30.46 in 10.0 mi NNW 3.5 mph - N/A   Clear
7:53 AM 32.0 °F - 27.0 °F 82% 30.47 in 10.0 mi Calm Calm - N/A   Clear
8:44 AM 35.6 °F 29.2 °F 30.2 °F 81% 30.46 in 9.0 mi NE 8.1 mph - N/A   Partly Cloudy
8:50 AM 35.6 °F 27.5 °F 32.0 °F 87% 30.46 in 1.0 mi ENE 11.5 mph - N/A   Mostly Cloudy
8:53 AM 34.0 °F 27.2 °F 32.0 °F 92% 30.49 in 1.0 mi East 8.1 mph - N/A   Mostly Cloudy
8:57 AM 33.8 °F 28.6 °F 33.8 °F 100% 30.47 in 0.8 mi East 5.8 mph - N/A   Overcast
9:03 AM 33.8 °F 27.7 °F 33.8 °F 100% 30.46 in 1.0 mi East 6.9 mph - N/A   Overcast
9:12 AM 33.8 °F 27.7 °F 33.8 °F 100% 30.47 in 0.8 mi ENE 6.9 mph - N/A   Overcast
9:53 AM 36.0 °F 30.3 °F 35.1 °F 97% 30.50 in 0.8 mi ENE 6.9 mph - N/A   Overcast
10:01 AM 35.6 °F 30.7 °F 35.6 °F 100% 30.47 in 1.0 mi ENE 5.8 mph - N/A   Overcast
10:11 AM 35.6 °F 30.7 °F 35.6 °F 100% 30.48 in 0.5 mi East 5.8 mph - N/A   Overcast
10:53 AM 37.9 °F - 37.0 °F 97% 30.51 in 0.5 mi Calm Calm - N/A Fog Fog
11:16 AM 37.4 °F - 37.4 °F 100% 30.48 in 1.0 mi Calm Calm - N/A   Overcast
11:50 AM 39.2 °F 35.0 °F 35.6 °F 87% 30.47 in 2.0 mi East 5.8 mph - N/A   Overcast
11:53 AM 39.9 °F 37.8 °F 36.0 °F 86% 30.50 in 3.0 mi ESE 3.5 mph - N/A   Overcast
12:53 PM 43.0 °F 41.3 °F 37.0 °F 80% 30.49 in 5.0 mi North 3.5 mph - N/A   Haze
12:59 PM 44.6 °F - 37.4 °F 76% 30.46 in 5.0 mi Calm Calm - N/A   Haze
1:53 PM 48.0 °F - 37.0 °F 66% 30.48 in 8.0 mi East 4.6 mph - N/A   Clear
2:53 PM 48.0 °F - 37.0 °F 66% 30.48 in 10.0 mi ESE 3.5 mph - N/A   Clear
3:53 PM 46.9 °F - 36.0 °F 66% 30.48 in 10.0 mi SE 3.5 mph - N/A   Clear
4:53 PM 39.9 °F - 36.0 °F 86% 30.48 in 8.0 mi Calm Calm - N/A   Clear
5:53 PM 36.0 °F - 34.0 °F 93% 30.48 in 8.0 mi Calm Calm - N/A   Clear
6:53 PM 32.0 °F 27.5 °F 30.0 °F 92% 30.48 in 6.0 mi East 4.6 mph - N/A   Clear
7:53 PM 39.0 °F 35.7 °F 36.0 °F 89% 30.49 in 4.0 mi SSE 4.6 mph - N/A   Clear
8:53 PM 37.0 °F 32.4 °F 35.1 °F 93% 30.48 in 3.0 mi SE 5.8 mph - N/A   Clear
9:53 PM 37.9 °F 32.1 °F 36.0 °F 93% 30.47 in 4.0 mi SSE 8.1 mph - N/A   Clear
10:53 PM 37.0 °F - 35.1 °F 93% 30.48 in 4.0 mi Calm Calm - N/A   Partly Cloudy
11:53 PM 37.0 °F 31.6 °F 36.0 °F 96% 30.49 in 3.0 mi South 6.9 mph - N/A   Mostly Cloudy